Showing default

QIANFAN-30, 61563

Orbit data source: Space-Track

QIANFAN-30, 61563 is a Chinese payload satellite in LEO that was launched on Tue, 15 Oct 2024 UTC via a CHANG ZHENG 6A launch vehicle from the Taiyaun Space Center, China (TSC). Payloads include a variety of satellites, spacecraft, and rockets equipped with specific instruments for various scientific and technological missions. These include communications satellites like Starlink; space stations such as the ISS; scientific satellites like the Hubble; Earth observation satellites from companies like Planet Labs, Umbra, and HawkEye 360; GPS; miniature CubeSats for education and research; and military/defense satellites.

Loading next visibility...
QIANFAN-30 details
Identifier
61563, 2024-185M
Orbit
LEO
Last TLE update11 hours ago
Origin
Flag of CNYUANX (CN / PRC)
ManufacturerGESIH/SECM
MissionOperational Commercial Communications
Bus & MotorQIANFAN, Unknown motor
Mass300 kg wet, ~300 kg dry
Launch date (UTC)
2024-10-15 (4 months ago)
Launch vehicle
CHANG ZHENG 6A
Launch site
Taiyaun Space Center, China (TSC)
Object type
Payload
Rocket body
Debris
Shape & HBRBox + 1 Pan, 10 m
Radar Cross Section13.200 m², Large (>1 m²)

Expand to show TLE details & history

TLE from 11 hours ago
0 QIANFAN-30
1 61563U 24185M   25035.83273548  .00001142  00000-0  58111-3 0  9993
2 61563  88.9876 113.3805 0006664 196.5254 163.5717 14.15165846 25798
Epoch: 2025-02-04T19:59Z
Definitive object data (Epoch: 2025-02-04T19:59:08.345Z)
Latitude-0.00004°
Longitude38.36337°
Altitude849.41 km
Speed7.426 km/s
True Right ascension07h 33m 31s
True Declination0° 00' 00"
Sunlit
Object was in full shadow at TLE epoch
Visualization TLE readout
Latitude59.33117°
Longitude-143.38626°
Altitude850.607 km
Speed7.434 km/s
Apparent Right ascension20h 12m 07s
Apparent Declination14° 04' 52"
Sunlit
Object is in daylight
Visualization observer readout
Local Sidereal Time08:46:25
Azimuth10.222° NNE
Elevation-35.416°
Doppler factor1
Orbital elements
Apogee altitude843.516 km
Perigee altitude833.897 km
Semi-major axis7,216.843 km
Eccentricity0.0006664
Inclination88.9876°
RAAN113.3805°
Arg. of periapsis196.5254°
True anomaly163.59328°
Mean anomaly163.5717°
Eccentric anomaly163.58249°
Mean motion3.54015 °/min
BSTAR0.00058111
Orbital period101.69 mins
Loading maneuver chart data...
Loading historical data...
Loading historical data...
Loading historical data...
Loading historical data...
Loading historical data...
Loading historical data...
Loading historical data...

QIANFAN-30 Visibility forecast

Observer location: undefined°, undefined

Span
Click to sort rows by Start time (UTC) header in descending order
Start Az.
Max El. time (UTC)
Max El. Az.
Max El.
End time (UTC)
End Az.
9 mins2025-02-05 16:56:11.929Z13.989° NNE2025-02-05 17:00:11.929Z72.493° E38.296°2025-02-05 17:05:11.929Z162.334° S
6 mins2025-02-05 18:39:11.929Z317.109° NNW2025-02-05 18:42:11.929Z278.933° WNW17.498°2025-02-05 18:45:11.929Z244.357° WSW
7 mins2025-02-06 04:22:11.929Z120.366° SE2025-02-06 04:25:11.929Z81.125° E21.683°2025-02-06 04:29:11.929Z30.198° NE
8 mins2025-02-06 06:03:11.929Z211.842° SW2025-02-06 06:07:11.929Z284.471° WNW33.487°2025-02-06 06:11:11.929Z340.847° N
|